This demonstration page uses our WeatherBlox Daily Observations layout. Learn more.

Left ArrowRight Arrow

36.19886, -115.1175

Hourly Observations for January 20, 2022

Temp ( °F °C ) Dew Point ( °F °C ) Humidity (%) Winds ( mph kmh ) Pressure ( in mb ) Visibility ( mi km ) Precip ( " mm )
12:53 am 00:53 Clear 50 10 24 -4.4 36 36 SE 5 7 30.32 1027 10 16 0.00 0.00
1:53 am 01:53 Clear 52 11.1 23 -5 32 32 S 5 7 30.34 1027 10 16 0.00 0.00
2:53 am 02:53 Clear 51 10.6 22 -5.6 32 32 NNE 7 11 30.34 1028 10 16 0.00 0.00
3:53 am 03:53 Clear 53 11.7 22 -5.6 30 30 NNW 8 13 30.35 1028 10 16 0.00 0.00
4:53 am 04:53 Clear 50 10 22 -5.6 33 33 N 8 13 30.36 1028 10 16 0.00 0.00
5:53 am 05:53 Clear 50 10 22 -5.6 33 33 N 17 28 30.37 1029 10 16 0.00 0.00
6:53 am 06:53 Sunny 48 8.9 22 -5.6 36 36 NW 8 13 30.40 1030 10 16 0.00 0.00
7:53 am 07:53 Sunny 51 10.6 22 -5.6 32 32 NNW 10 17 30.42 1030 10 16 0.00 0.00
8:53 am 08:53 Sunny 51 10.6 25 -3.9 36 36 VRB 6 9 30.44 1031 10 16 0.00 0.00
9:53 am 09:53 Sunny 56 13.3 22 -5.6 27 27 NNE 8 13 30.45 1031 10 16 0.00 0.00
10:53 am 10:53 Sunny 56 13.3 22 -5.6 27 27 VRB 5 7 30.43 1031 10 16 0.00 0.00
11:53 am 11:53 Sunny 59 15 22 -5.6 24 24 VRB 5 7 30.38 1029 10 16 0.00 0.00
12:53 pm 12:53 Sunny 60 15.6 22 -5.6 23 23 ESE 5 7 30.35 1028 10 16 0.00 0.00
1:53 pm 13:53 Sunny 62 16.7 22 -5.6 21 21 VRB 5 7 30.32 1027 10 16 0.00 0.00
2:53 pm 14:53 Sunny 62 16.7 21 -6.1 21 21 SE 6 9 30.31 1026 10 16 0.00 0.00
3:53 pm 15:53 Sunny 62 16.7 20 -6.7 20 20 SSE 3 6 30.29 1026 10 16 0.00 0.00
4:53 pm 16:53 Sunny 59 15 19 -7.2 21 21 SE 3 6 30.27 1025 10 16 0.00 0.00
5:53 pm 17:53 Clear 57 13.9 20 -6.7 24 24 Calm 30.29 1026 10 16 0.00 0.00
6:53 pm 18:53 Clear 53 11.7 23 -5 31 31 WNW 6 9 30.29 1026 10 16 0.00 0.00
7:53 pm 19:53 Clear 51 10.6 24 -4.4 35 35 WNW 6 9 30.28 1025 10 16 0.00 0.00
8:53 pm 20:53 Clear 49 9.4 23 -5 36 36 N 5 7 30.27 1025 10 16 0.00 0.00
9:53 pm 21:53 Clear 46 7.8 22 -5.6 38 38 NW 5 7 30.25 1025 10 16 0.00 0.00
10:53 pm 22:53 Clear 46 7.8 24 -4.4 42 42 W 5 7 30.23 1024 10 16 0.00 0.00
11:53 pm 23:53 Clear 44 6.7 23 -5 43 43 W 5 7 30.21 1023 10 16 0.00 0.00

Powered by AerisWeather